User: anonymous   Login
Location: Caltech
(34.1382°N, 118.1253°W)
Time: 08:23:29
(UTC-07:00)
Language:

BREEZE M DEB (TANK) - Orbit

View from above orbital plane
View from above orbital plane
View from above satellite
View from above satellite

Ground track
Ground track

The orbit data is extracted from the following two-line orbital elements,

1 33437U 08057B   14293.18120736  .00002313  00000-0  67534-3 0  1143
2 33437 049.5730 354.0688 5008622 092.0342 340.5396 05.56083063119598
Epoch (UTC): 20 October 2014 04:20:56
Eccentricity: 0.5008622
inclination: 49.5730°
perigee height: 339 km
apogee height: 13820 km
right ascension of ascending node: 354.0688°
argument of perigee: 92.0342°
revolutions per day: 5.56083063
mean anomaly at epoch: 340.5396°
orbit number at epoch: 11959

The dashed part of the orbit path shows where the satellite is in the earth's shadow,  

DLR